Погода в Рустай

Россия / Нижегородская область     56°30′04″N   44°48′40″E
темп.,
°C
ветер,
м/с
пор.,
м/с
влажн.,
%
обл.,
%
осадки,
мм/ч
давл.,
гПа
погр.,
м
30 июня, чт
чт3000:00+11ссз24736 0.0 101764
03:00+10сз247381 0.0 101784
06:00+14ссз386498 0.0 1015261
09:00+19ссз49385 0.0 10141524
12:00+22ссз5832100 0.0 10122995
15:00+22сз5735100 0.0 10112975
18:00+18св484788 0.1 1012804
21:00+15св595196 0.1 1014840
1 июля, пт
пт100:00+9ссв410686 0.0 1016367
03:00+7с311725 0.0 1017376
06:00+10с51261100 0.0 1017769
09:00+12ссв51255100 0.0 10171105
12:00+13св4116097 0.0 10181290
15:00+17св4105287 0.1 10181630
18:00+19св39496 0.0 10171559
21:00+13с257272 0.0 101878
2 июля, сб
сб200:00+11с357811 0.0 101977
03:00+9с257821 0.0 101879
06:00+14с36685 0.0 1018204
09:00+21с354120 0.0 10171121
12:00+22св243922 0.0 10161343
15:00+25ссз2535100 0.0 10142548
18:00+20сз116298 0.0 101314
21:00+15ссв11856 0.3 101312
3 июля, вс
вс300:00+13ссв37965 0.0 1014140
03:00+12ссв389813 0.0 1014191
06:00+14св36871 0.0 1014278
09:00+18ссв457399 0.0 1015763
12:00+21ссв355891 0.1 10151514
15:00+22ссв555266 0.2 10151520
18:00+22св3652100 0.0 10141515
21:00+15с117810 0.0 101611
4 июля, пн
пн400:00+14сз228144 0.0 101626
03:00+13сз258615 0.0 101683
06:00+16ссз267395 0.0 1017174
09:00+23с354740 0.0 1017954
12:00+26ссв453530 0.0 10162688
15:00+27св35325 0.0 10162627
18:00+26всв24458 0.0 1016306
21:00+18юв227089 0.0 101737